TIFM7: Elk River, Tiff City, MO

Data processed at Thu Mar 08 2018 23:40


All information presented herein is the property of the government of the United States of America and may be revised or deleted at any time without prior notice.
Dissemination of this information without the expressed written consent of the Public Affairs Office, Tulsa District U.S. Army Corps of Engineers is strictly prohibited.
These data are gathered electronically and, as presented, have not undergone any form of quality control. These data are not guaranteed to be valid or correct.
Go to home page.
Go to station list.

Upstream stations:

Downstream station:
Previous Day
Next Day
Current Day
    
SHEF ID:       TIFM7     Elk River near Tiff City, Mo
STATION TYPE:  

               PRECIP     STAGE  STAGE(2)  RIV-FLOW   VOLTAGE
                   in        ft        ft       cfs      volt
              Ccp-Rev   Ccp-Rev   Ccp-Rev   Ccp-Rev   Ccp-Rev
(US/Central)
03/06 00:00      0.00      4.98      4.93      1118     12.90
03/06 01:00      0.00      4.98      4.93      1118     12.90
03/06 02:00      0.00      4.98      4.92      1118     12.90
03/06 03:00      0.00      4.96      4.91      1106     12.90
03/06 04:00      0.00      4.95      4.90      1101     12.80
03/06 05:00      0.00      4.94      4.89      1095     12.80
03/06 06:00      0.00      4.94      4.88      1095     12.80
03/06 07:00      0.00      4.93      4.88      1089     13.20
03/06 08:00      0.00      4.93      4.90      1089     14.40
03/06 09:00      0.00      4.93      4.87      1089     14.50
03/06 10:00      0.00      4.92      4.88      1084     14.20
03/06 11:00      0.00      4.92      4.87      1084     14.30
03/06 12:00      0.00      4.90      4.82      1072     14.30
03/06 13:00      0.00      4.88      4.82      1061     14.20
03/06 14:00      0.00      4.87      4.79      1055     14.20
03/06 15:00      0.00      4.85      4.80      1044     13.90
03/06 16:00      0.00      4.85      4.80      1044     13.30
03/06 17:00      0.00      4.83      4.78      1033     13.10
03/06 18:00      0.00      4.83      4.77      1033     13.00
03/06 19:00      0.00      4.83      4.76      1033     13.00
03/06 20:00      0.00      4.82      4.78      1027     12.90
03/06 21:00      0.00      4.81      4.76      1022     12.90
03/06 22:00      0.00      4.80      4.75      1016     12.90
03/06 23:00      0.00      4.79      4.73      1011     12.90